TimeCST,TemperatureF,Dew PointF,Humidity,Sea Level PressureIn,VisibilityMPH,Wind Direction,Wind SpeedMPH,Gust SpeedMPH,PrecipitationIn,Events,Conditions,WindDirDegrees,DateUTC
12:15 AM,47.3,36.9,67,30.14,10.0,SW,5.8,-,N/A,,Overcast,230,2012-11-20 06:15:00
12:35 AM,47.3,37.0,68,30.14,10.0,SW,5.8,-,N/A,,Overcast,230,2012-11-20 06:35:00
12:55 AM,47.5,36.7,66,30.14,10.0,SW,6.9,-,N/A,,Overcast,230,2012-11-20 06:55:00
1:15 AM,47.7,36.5,65,30.13,10.0,SW,4.6,-,N/A,,Overcast,220,2012-11-20 07:15:00
1:35 AM,47.5,36.5,66,30.13,10.0,Calm,Calm,-,N/A,,Overcast,0,2012-11-20 07:35:00
1:55 AM,46.6,37.9,72,30.12,7.0,Calm,Calm,-,N/A,Rain,Light Rain,0,2012-11-20 07:55:00
2:15 AM,44.2,40.3,86,30.12,7.0,ESE,3.5,-,N/A,,Overcast,110,2012-11-20 08:15:00
2:35 AM,45.1,39.9,82,30.11,10.0,Calm,Calm,-,N/A,,Overcast,0,2012-11-20 08:35:00
6:15 AM,46.4,39.2,76,30.10,10.0,SW,3.5,-,N/A,,Overcast,230,2012-11-20 12:15:00
6:35 AM,46.4,39.2,76,30.10,10.0,SSW,3.5,-,N/A,,Overcast,210,2012-11-20 12:35:00
6:55 AM,46.4,39.2,76,30.10,10.0,Calm,Calm,-,N/A,,Overcast,0,2012-11-20 12:55:00
7:15 AM,46.0,39.9,79,30.10,10.0,Calm,Calm,-,N/A,,Overcast,0,2012-11-20 13:15:00
7:35 AM,46.0,41.2,83,30.10,10.0,Calm,Calm,-,N/A,,Overcast,0,2012-11-20 13:35:00
7:55 AM,47.1,39.9,76,30.11,10.0,Calm,Calm,-,N/A,,Overcast,0,2012-11-20 13:55:00
8:15 AM,47.5,40.1,76,30.11,10.0,SW,3.5,-,N/A,,Overcast,230,2012-11-20 14:15:00
8:35 AM,47.7,39.7,74,30.11,10.0,Calm,Calm,-,N/A,,Overcast,0,2012-11-20 14:35:00
8:55 AM,47.7,40.1,75,30.11,10.0,Calm,Calm,-,N/A,,Overcast,0,2012-11-20 14:55:00
9:15 AM,48.0,40.1,74,30.11,10.0,Calm,Calm,-,N/A,,Overcast,0,2012-11-20 15:15:00
9:35 AM,48.2,40.1,74,30.11,10.0,Calm,Calm,-,N/A,,Overcast,0,2012-11-20 15:35:00
9:55 AM,48.4,40.1,73,30.11,7.0,Calm,Calm,-,N/A,,Overcast,0,2012-11-20 15:55:00
10:15 AM,48.9,40.1,72,30.11,10.0,Calm,Calm,-,N/A,,Overcast,0,2012-11-20 16:15:00
10:35 AM,49.8,40.5,70,30.11,10.0,Calm,Calm,-,N/A,,Overcast,0,2012-11-20 16:35:00
10:55 AM,50.2,41.0,71,30.10,7.0,Calm,Calm,-,N/A,,Overcast,0,2012-11-20 16:55:00
11:15 AM,51.8,42.1,69,30.09,7.0,Calm,Calm,-,N/A,,Overcast,0,2012-11-20 17:15:00
11:35 AM,52.5,42.3,68,30.08,7.0,Calm,Calm,-,N/A,,Scattered Clouds,0,2012-11-20 17:35:00
11:55 AM,52.7,43.0,70,30.08,7.0,WNW,4.6,-,N/A,,Mostly Cloudy,290,2012-11-20 17:55:00
12:15 PM,52.2,42.6,70,30.08,7.0,West,4.6,-,N/A,,Overcast,260,2012-11-20 18:15:00
12:35 PM,51.4,42.3,71,30.09,7.0,NW,5.8,-,N/A,,Overcast,310,2012-11-20 18:35:00
12:55 PM,51.3,42.3,71,30.09,7.0,NW,5.8,-,N/A,,Overcast,320,2012-11-20 18:55:00
1:15 PM,51.3,42.4,72,30.09,7.0,NW,6.9,-,N/A,,Overcast,310,2012-11-20 19:15:00
1:35 PM,50.4,42.1,73,30.09,7.0,North,5.8,-,N/A,,Overcast,350,2012-11-20 19:35:00
1:55 PM,49.6,42.8,77,30.09,5.0,NNW,5.8,-,N/A,,Haze,330,2012-11-20 19:55:00
2:15 PM,49.5,43.7,81,30.08,5.0,North,4.6,-,N/A,,Haze,360,2012-11-20 20:15:00
2:35 PM,49.5,43.7,81,30.09,5.0,North,3.5,-,N/A,,Haze,10,2012-11-20 20:35:00
2:55 PM,49.1,43.9,82,30.09,4.0,Calm,Calm,-,N/A,,Haze,0,2012-11-20 20:55:00
3:15 PM,49.1,44.2,83,30.10,4.0,Calm,Calm,-,N/A,,Haze,0,2012-11-20 21:15:00
3:35 PM,48.9,44.4,84,30.10,5.0,NNW,4.6,-,N/A,,Haze,330,2012-11-20 21:35:00
3:55 PM,48.6,44.4,86,30.11,5.0,NW,3.5,-,N/A,,Haze,320,2012-11-20 21:55:00
4:15 PM,48.2,44.4,87,30.11,4.0,NNW,6.9,-,N/A,,Overcast,330,2012-11-20 22:15:00
4:35 PM,47.7,44.6,89,30.12,4.0,NNW,6.9,-,N/A,,Overcast,330,2012-11-20 22:35:00
4:55 PM,47.5,45.0,91,30.12,3.0,NNW,6.9,-,N/A,,Overcast,330,2012-11-20 22:55:00
5:15 PM,47.5,45.0,91,30.13,3.0,NNW,8.1,-,N/A,,Overcast,330,2012-11-20 23:15:00
5:35 PM,46.8,44.6,92,30.14,3.0,North,8.1,-,N/A,,Overcast,350,2012-11-20 23:35:00
5:55 PM,45.7,43.5,92,30.14,3.0,North,5.8,-,N/A,,Mostly Cloudy,350,2012-11-20 23:55:00
6:15 PM,43.5,41.9,94,30.14,3.0,North,3.5,-,N/A,,Clear,360,2012-11-21 00:15:00
6:35 PM,40.1,39.0,96,30.14,1.5,NNW,3.5,-,N/A,,Mist,340,2012-11-21 00:35:00
6:55 PM,39.2,38.3,97,30.15,1.5,Calm,Calm,-,N/A,,Mist,0,2012-11-21 00:55:00
7:15 PM,39.4,38.7,97,30.15,0.2,Calm,Calm,-,N/A,Fog,Fog,0,2012-11-21 01:15:00
7:35 PM,38.3,37.8,98,30.16,0.2,Calm,Calm,-,N/A,Fog,Fog,0,2012-11-21 01:35:00
7:55 PM,36.3,36.0,99,30.16,0.2,Calm,Calm,-,N/A,Fog,Fog,0,2012-11-21 01:55:00
8:15 PM,36.7,36.3,99,30.16,0.2,Calm,Calm,-,N/A,Fog,Fog,0,2012-11-21 02:15:00
8:35 PM,36.9,36.5,99,30.16,0.2,Calm,Calm,-,N/A,Fog,Fog,0,2012-11-21 02:35:00
8:55 PM,39.6,39.2,99,30.16,0.2,East,4.6,-,N/A,,Unknown,80,2012-11-21 02:55:00
9:15 PM,40.6,40.3,99,30.17,0.2,Calm,Calm,-,N/A,,Drizzle,0,2012-11-21 03:15:00
9:35 PM,40.3,40.1,99,30.17,0.2,Calm,Calm,-,N/A,,Unknown,0,2012-11-21 03:35:00
9:55 PM,40.1,39.7,99,30.18,0.2,Calm,Calm,-,N/A,Fog,Fog,0,2012-11-21 03:55:00
10:15 PM,39.4,39.2,99,30.17,0.2,Calm,Calm,-,N/A,Fog,Fog,0,2012-11-21 04:15:00
10:35 PM,38.3,38.1,99,30.17,0.2,Calm,Calm,-,N/A,Fog,Fog,0,2012-11-21 04:35:00
10:55 PM,36.9,36.7,99,30.17,0.2,Calm,Calm,-,N/A,Fog,Fog,0,2012-11-21 04:55:00
11:15 PM,34.5,34.5,100,30.17,0.2,Calm,Calm,-,N/A,Fog,Fog,0,2012-11-21 05:15:00
11:35 PM,33.8,33.8,100,30.17,0.2,Calm,Calm,-,N/A,,Overcast,0,2012-11-21 05:35:00
11:55 PM,32.9,32.9,100,30.18,0.2,Calm,Calm,-,N/A,Fog,Fog,0,2012-11-21 05:55:00